TIME,DELAY(SENSOR),PRES,OXYGEN,RAWTEMP,T(OPTODE),TCPHASE,FLUOR,BETA(BETA700),BETA(BETA412),BETA(BETA440),CDOM,C(CSC),ED(ED412.40),ED(ED444.00),ED(ED489.70),ED(ED554.30),LU(LU411.80),LU(LU443.40),LU(LU489.60),LU(LU554.10),COMP,TILTX,TILTY,CHECK
1358653104,5808,861.8800048828125000,45.7146301269531250,660.5897216796875000,4.6085591316223145,54.1636085510253900,52,100,87,80,80,15069,2147756800,2147425956,2148006948,2147875437,2147635264,2147060845,2148258459,2147198299,736,4,13,20228
1358656700,5808,959.5100097656250000,51.4878807067871100,667.4937133789062000,4.3809571266174320,53.4312896728515600,53,98,86,78,81,15072,2147762843,2147423058,2148008640,2147871378,2147641490,2147058230,2148261037,2147194285,3096,4,13,50206
1358660300,5809,977.7199707031250000,51.8164215087890600,667.7299194335938000,4.3731589317321780,53.3882904052734400,53,97,88,79,80,15069,2147758381,2147424091,2148011227,2147871762,2147640402,2147053056,2148258258,2147193728,108,4,13,61965
1358663900,5809,983.9400024414062000,52.1522789001464840,668.0128173828125000,4.3638191223144530,53.3474006652832000,52,95,89,80,80,15070,2147759396,2147424493,2148011465,2147874998,2147640137,2147056576,2148265097,2147196745,3412,4,13,3104
1358667500,5809,976.3499755859375000,52.8758316040039060,670.7410888671875000,4.2737140655517580,53.2851104736328100,53,96,88,77,80,15069,2147759469,2147425051,2148007314,2147870802,2147642102,2147058075,2148261686,2147197860,372,4,13,51648
1358671100,5808,983.9099731445312000,52.8059387207031250,670.6464843750000000,4.2768378257751465,53.2948417663574200,52,96,88,79,80,15069,2147758555,2147422162,2148009417,2147874834,2147639094,2147057252,2148261540,2147195867,458,4,13,11520
1358674700,5809,982.5200195312500000,53.3532791137695300,669.9639282226562000,4.2993907928466800,53.2126197814941400,52,97,84,78,79,15070,2147755465,2147423286,2148008722,2147870994,2147639808,2147056347,2148259026,2147198253,592,4,13,56157
1358678300,5809,980.5700073242188000,52.7747611999511700,671.3922119140625000,4.2521991729736330,53.3120498657226560,53,106,87,79,79,15062,2147757220,2147427922,2148010322,2147878162,2147642066,2147054482,2148260050,2147198720,561,4,13,2321
1358681900,5809,977.7999877929688000,52.9052581787109400,672.6232299804688000,4.2115039825439450,53.3072814941406250,51,98,84,78,82,15071,2147755145,2147425563,2148011858,2147873746,2147640301,2147055808,2148265133,2147194678,3076,4,13,51391
1358685500,5811,974.9099731445312000,53.7807807922363300,673.3853149414062000,4.1863040924072270,53.2003402709960940,52,99,88,79,80,15070,2147755830,2147425654,2148009792,2147872941,2147638409,2147054857,2148263003,2147192109,70,4,13,56303
1358689100,5809,982.5499877929688000,54.0560493469238300,673.2794189453125000,4.1898059844970700,53.1594085693359400,53,97,83,79,81,15070,2147756379,2147424429,2148009664,2147877275,2147640146,2147059840,2148261769,2147194267,3440,4,13,62701
1358692700,5803,988.2500000000000000,53.4043312072753900,672.5125122070312000,4.2151660919189450,53.2391891479492200,52,97,86,78,81,15064,2147757238,2147425088,2148011309,2147874249,2147638454,2147055460,2148259474,2147193197,123,4,13,52173
1358696300,5806,985.0700073242188000,52.4315299987793000,672.2081298828125000,4.2252268791198730,53.3650016784668000,52,98,87,80,79,15051,2147758217,2147425892,2148013906,2147876653,2147639131,2147055213,2148259666,2147194459,3083,4,13,18255
1358699900,5810,989.0599975585938000,53.1534996032714840,672.9580078125000000,4.2004342079162600,53.2778015136718750,53,98,86,78,80,15059,2147757778,2147424566,2148013037,2147876617,2147640347,2147054921,2148268068,2147191670,34,4,13,29193
1358703500,5811,991.6400146484375000,52.7452697753906250,671.6577758789062000,4.2434201240539550,53.3188095092773440,53,97,87,79,81,15060,2147758070,2147424896,2148011648,2147872612,2147639945,2147056466,2148261083,2147196736,380,4,13,43279
1358707100,5811,988.3499755859375000,52.2167816162109400,671.8610839843750000,4.2366981506347660,53.3925514221191400,52,98,86,79,81,15061,2147757403,2147422866,2148008950,2147876150,2147644781,2147061101,2148257618,2147198701,63,4,13,18279
1358710700,5811,991.8400268554688000,52.2874984741210940,671.9036254882812000,4.2352938652038570,53.3841209411621100,52,96,87,79,80,15061,2147753325,2147421513,2148009874,2147875474,2147637906,2147058038,2148262720,2147196827,51,4,13,43765
1358714300,5812,992.1099853515625000,52.2855796813964840,672.2457885742188000,4.2239818572998050,53.3858413696289060,52,97,87,78,81,15060,2147758153,2147423030,2148010934,2147875894,2147640731,2147058304,2148261211,2147198454,3313,4,13,44952
1358717900,5808,997.8699951171875000,52.6287994384765600,670.6912231445312000,4.2753601074218750,53.3206901550293000,51,99,90,78,80,15057,2147756032,2147424356,2148012461,2147874816,2147638464,2147052745,2148261266,2147194285,202,4,13,54065
1358721500,5810,996.4099731445312000,51.9959602355957000,670.9561767578125000,4.2666049003601070,53.4088706970214840,52,97,86,79,80,15058,2147765138,2147422454,2148011465,2147876553,2147640402,2147057993,2148263945,2147196077,3545,4,13,4636
1358725100,5809,991.8800048828125000,52.4580993652343750,672.3093261718750000,4.2218837738037110,53.3632392883300800,51,98,87,78,80,15060,2147758601,2147423369,2148008914,2147874870,2147642404,2147053942,2148262902,2147195401,3299,4,13,6060
1358728700,5808,992.5800170898438000,53.2371101379394500,672.5723876953125000,4.2131838798522950,53.2641181945800800,52,97,86,79,80,15057,2147758747,2147422509,2148009453,2147875611,2147643090,2147053632,2148264996,2147193673,3548,4,13,22906
1358732300,5810,986.6199951171875000,52.6560592651367200,671.4909057617188000,4.2489337921142580,53.3263893127441400,52,104,91,80,80,15058,2147758189,2147423634,2148011382,2147875090,2147637312,2147057179,2148259145,2147196224,427,4,13,21490
1358735900,5809,987.2600097656250000,52.9814491271972660,673.6207885742188000,4.1785140037536620,53.3064498901367200,51,96,87,78,80,15052,2147758564,2147421942,2148010157,2147874505,2147641974,2147056036,2148264466,2147193782,633,4,13,34461
1358739500,5810,996.4299926757812000,52.4336700439453100,672.1281127929688000,4.2278728485107420,53.3659095764160160,53,97,85,78,81,15054,2147761307,2147423524,2148010112,2147871350,2147641572,2147055268,2148258075,2147194770,47,4,13,27695
1358743100,5810,993.9699707031250000,51.9347305297851560,672.4376831054688000,4.2176380157470700,53.4384193420410160,52,98,85,78,80,15048,2147759250,2147424484,2148006290,2147871561,2147640841,2147053476,2148255286,2147195145,66,4,13,46140
1358746700,5809,994.0900268554688000,53.2127799987793000,672.6520996093750000,4.2105479240417480,53.2655487060546900,52,96,88,79,80,15050,2147757824,2147427108,2148012480,2147870628,2147640877,2147058304,2148261193,2147194806,92,4,13,21558
1358750300,5810,998.2800292968750000,52.5958595275878900,672.3267211914062000,4.2213101387023930,53.3444595336914060,52,98,90,78,80,15050,2147758281,2147423168,2148007634,2147873664,2147635776,2147056731,2148256265,2147195730,3334,4,13,9095
1358753900,5811,994.4500122070312000,51.8550415039062500,671.6790161132812000,4.2427201271057130,53.4396896362304700,53,97,90,79,80,15041,2147756434,2147427958,2148011830,2147873261,2147643072,2147067309,2148262043,2147195044,375,4,13,18139
1358757500,5810,999.9799804687500000,52.1755218505859400,671.0895996093750000,4.2621970176696780,53.3869590759277340,53,104,86,79,80,15043,2147755574,2147425188,2148009216,2147876672,2147642477,2147063680,2148255076,2147194852,342,4,13,43949
1358761100,5807,995.1500244140625000,52.2510414123535160,671.0006103515625000,4.2651371955871580,53.3748283386230500,52,98,87,78,80,15044,2147759862,2147424704,2148009819,2147872365,2147642395,2147055753,2148261869,2147197906,126,4,14,58007
1358764700,5809,978.9699707031250000,53.1300201416015600,673.8364868164062000,4.1713809967041020,53.2942695617675800,53,96,90,78,80,15044,2147756141,2147426962,2148008146,2147879360,2147638838,2147058075,2148259757,2147195785,148,4,13,3250
1358768300,5813,982.8400268554688000,53.5419616699218750,673.9799804687500000,4.1666340827941895,53.2383613586425800,52,97,85,80,80,15045,2147757293,2147422345,2148011309,2147877421,2147644160,2147057782,2148260690,2147197248,392,4,13,39392
1358771900,5809,993.7500000000000000,53.9948806762695300,674.4218139648438000,4.1520180702209470,53.1879386901855500,52,103,84,79,80,15040,2147758582,2147424576,2148010779,2147874761,2147641846,2147055881,2148260123,2147196352,3004,4,13,8789
1358775500,5809,998.9899902343750000,53.7714118957519500,673.3822021484375000,4.1864070892333980,53.1992988586425800,53,98,89,79,81,15040,2147757366,2147425188,2148009051,2147873517,2147640768,2147060681,2148260644,2147196672,2734,4,13,50988
1358779100,5809,993.4799804687500000,53.4345588684082000,673.8925170898438000,4.1695270538330080,53.2501487731933600,52,97,86,96,81,15041,2147759094,2147424557,2148007277,2147875977,2147640484,2147053348,2148259593,2147198070,3081,4,13,38745
1358782700,5808,995.5499877929688000,52.9750518798828100,672.9868774414062000,4.1994757652282715,53.3004913330078100,52,98,84,78,81,15042,2147759780,2147420900,2148011209,2147877906,2147642642,2147063433,2148258733,2147196233,100,4,13,38242
1358786300,5809,995.2199707031250000,52.9418983459472660,672.7484130859375000,4.2073669433593750,53.3049087524414060,52,95,88,79,81,15042,2147758829,2147423268,2148009188,2147872393,2147637403,2147061001,2148263268,2147197586,102,4,13,47175
1358789900,5807,996.0100097656250000,51.9678001403808600,672.2817993164062000,4.2227921485900880,53.4296989440918000,52,97,87,79,81,15040,2147759625,2147424850,2148008219,2147874340,2147642550,2147063113,2148266313,2147193874,642,4,13,57717
1358793500,5807,1002.9500122070312000,52.6784400939941400,671.2233276367188000,4.2577800750732420,53.3197402954101560,52,96,87,80,81,15041,2147757494,2147426953,2148007725,2147873389,2147637558,2147061202,2148254546,2147193810,574,4,13,63499
1358797100,5810,994.0399780273438000,52.6286315917968750,671.3280029296875000,4.2543182373046875,53.3283195495605500,52,98,87,80,81,15038,2147758144,2147426468,2148009453,2147875382,2147642889,2147063862,2148257316,2147195465,275,4,13,61905
1358798456,5807,1001.9799804687500000,52.2515602111816400,672.1287841796875000,4.2278480529785160,53.3869209289550800,53,98,89,78,81,15060,2147758875,2147422491,2148010779,2147873517,2147641508,2147059145,2148262354,2147193426,3378,4,13,32427
